EUTELSAT 10B

Last updated on Sun Apr 12 2026 00:02:56 GMT+0000 (Coordinated Universal Time)

1 54259U 22157A 26101.30872948 .00000070 00000+0 00000+0 0 9998 2 54259 0.0591 94.4126 0002272 16.5796 209.6772 1.00269577 12356
UTC large
Height (km)
Speed (km/s)
/
Latitude / Longitude
Inclination (degrees)
Orbital Period (minutes)
Azimuth
Elevation
Range (km)
Doppler Factor

Next 0 passes for location: London (51.5072 / 0.1276)

Sorry there are no passes over London.
EUTELSAT 10B